Cartersville, GA

7:20 PM EST on February 24, 2017 (GMT -0500)
Cartersville

Weather History for KVPC - August, 2013

Change the Weather History Date:

Thursday, August 1, 2013

  Actual Average Record
Temperature  
Mean Temperature 78 °F 79 °F  
Max Temperature 88 °F 90 °F 98 °F (2006)
Min Temperature 68 °F 68 °F 64 °F (2015)
Cooling Degree Days 13 14  
Month to date cooling degree days 13 14  
Year to date cooling degree days 836 870  
Since 1 June cooling degree days 711 721  
Growing Degree Days 29 (Base 50)    
Moisture  
Dew Point 71 °F    
Average Humidity 78    
Maximum Humidity 100    
Minimum Humidity 55    
Precipitation  
Precipitation T in 0.15 in 0.98 in (1986)
Month to date precipitation T 0.15  
Year to date precipitation 25.07 30.81  
Sea Level Pressure  
Sea Level Pressure 29.97 in    
Wind  
Wind Speed 1 mph (NNW)    
Max Wind Speed 12 mph    
Max Gust Speed 23 mph    
Visibility 8 miles    
Events Rain    
T = Trace of Precipitation, MM = Missing Value Source: NWS Daily Summary

Daily Weather History Graph

Daily Weather History Graph

Search for Another Location

Airport or City:

Trip Planner

Search our weather history database for the weather conditions in past years. The results will help you decide how hot, cold, wet, or windy it might be!

Date:

Astronomy

Aug. 01, 2013 Rise Set
Actual Time 6:50 AM EDT 8:40 PM EDT
Civil Twilight 6:23 AM EDT 9:07 PM EDT
Nautical Twilight 5:50 AM EDT 9:40 PM EDT
Astronomical Twilight 5:14 AM EDT 10:15 PM EDT
Moon 2:27 AM EDT (8/1) 4:46 PM EDT (8/1)
Length of Visible Light 14h 44m
Length of Day
13h 49m
Waning Crescent, 23% of the Moon is Illuminated
Aug 1
Waning Crescent
Aug 6
New
Aug 14
First Quarter
Aug 20
Full
Aug 28
Last Quarter

Hourly Weather History & Observations

Time (EDT) Temp. Heat Index Dew Point Humidity Pressure Visibility Wind Dir Wind Speed Gust Speed Precip Events Conditions
12:24 AM 73.4 °F - 71.6 °F 94% 30.02 in 2.5 mi Calm Calm - 0.05 in Rain Rain
12:33 AM 73.4 °F - 71.6 °F 94% 30.02 in 3.0 mi Calm Calm - 0.07 in Rain Rain
12:36 AM 73.4 °F - 71.6 °F 94% 30.02 in 3.0 mi Calm Calm - 0.08 in Rain Rain
12:53 AM 73.0 °F - 72.0 °F 96% 29.97 in 5.0 mi Calm Calm - 0.10 in Rain Light Rain
1:20 AM 73.4 °F - 71.6 °F 94% 30.00 in 8.0 mi Calm Calm - 0.00 in   Mostly Cloudy
1:29 AM 73.4 °F - 71.6 °F 94% 30.00 in 7.0 mi Calm Calm - 0.00 in   Scattered Clouds
1:53 AM 73.0 °F - 71.1 °F 93% 29.97 in 6.0 mi Calm Calm - 0.00 in   Mostly Cloudy
2:34 AM 73.4 °F - 71.6 °F 94% 30.01 in 7.0 mi Calm Calm - N/A   Mostly Cloudy
2:53 AM 73.0 °F - 71.1 °F 93% 29.98 in 6.0 mi Calm Calm - N/A   Overcast
3:53 AM 73.0 °F - 70.0 °F 90% 29.96 in 9.0 mi Calm Calm - N/A   Scattered Clouds
4:48 AM 71.6 °F - 69.8 °F 94% 29.98 in 6.0 mi Calm Calm - N/A   Mostly Cloudy
4:53 AM 72.0 °F - 70.0 °F 93% 29.95 in 7.0 mi Calm Calm - N/A   Mostly Cloudy
5:53 AM 72.0 °F - 70.0 °F 93% 29.96 in 7.0 mi Calm Calm - N/A   Overcast
6:53 AM 72.0 °F - 71.1 °F 97% 29.96 in 5.0 mi Calm Calm - N/A   Overcast
7:43 AM 71.6 °F - 71.6 °F 100% 29.99 in 4.0 mi Calm Calm - N/A   Scattered Clouds
7:53 AM 73.0 °F - 71.1 °F 93% 29.96 in 5.0 mi Calm Calm - N/A   Scattered Clouds
8:14 AM 73.4 °F - 71.6 °F 94% 29.99 in 5.0 mi Calm Calm - N/A   Mostly Cloudy
8:22 AM 73.4 °F - 71.6 °F 94% 30.00 in 5.0 mi Calm Calm - N/A   Mostly Cloudy
8:53 AM 73.9 °F - 71.1 °F 91% 29.97 in 7.0 mi Calm Calm - N/A   Overcast
9:25 AM 73.4 °F - 71.6 °F 94% 30.01 in 8.0 mi Calm Calm - N/A   Overcast
9:37 AM 75.2 °F - 71.6 °F 89% 30.01 in 8.0 mi Calm Calm - N/A   Overcast
9:53 AM 73.9 °F - 70.0 °F 87% 29.98 in 9.0 mi Calm Calm - N/A   Overcast
10:01 AM 75.2 °F - 69.8 °F 83% 30.01 in 10.0 mi Calm Calm - N/A   Overcast
10:53 AM 73.9 °F - 70.0 °F 87% 29.99 in 10.0 mi Calm Calm - N/A   Overcast
11:24 AM 75.2 °F - 71.6 °F 89% 30.02 in 10.0 mi Calm Calm - N/A   Overcast
11:53 AM 77.0 °F - 71.1 °F 82% 29.98 in 10.0 mi Variable 3.5 mph - N/A   Overcast
12:12 PM 77.0 °F - 71.6 °F 83% 30.02 in 10.0 mi Calm Calm - N/A   Overcast
12:38 PM 78.8 °F - 71.6 °F 78% 30.02 in 10.0 mi Calm Calm - N/A   Overcast
12:53 PM 78.1 °F - 70.0 °F 76% 29.97 in 10.0 mi Calm Calm - N/A   Overcast
1:53 PM 82.0 °F 86.7 °F 72.0 °F 71% 29.95 in 10.0 mi Variable 5.8 mph - N/A   Mostly Cloudy
2:53 PM 84.9 °F 90.1 °F 71.1 °F 63% 29.94 in 10.0 mi Calm Calm - N/A   Scattered Clouds
3:53 PM 84.0 °F 90.2 °F 73.0 °F 69% 29.92 in 10.0 mi Variable 3.5 mph - N/A   Mostly Cloudy
4:53 PM 88.0 °F 92.9 °F 70.0 °F 55% 29.91 in 10.0 mi Calm Calm - N/A   Scattered Clouds
5:53 PM 84.9 °F 90.1 °F 71.1 °F 63% 29.91 in 10.0 mi Variable 3.5 mph - N/A   Partly Cloudy
6:53 PM 82.0 °F 84.5 °F 66.9 °F 60% 29.91 in 10.0 mi NNW 4.6 mph - N/A   Clear
7:53 PM 79.0 °F - 69.1 °F 72% 29.92 in 10.0 mi Calm Calm - N/A   Clear
8:53 PM 73.0 °F - 70.0 °F 90% 29.94 in 9.0 mi Calm Calm - N/A   Clear
9:53 PM 71.1 °F - 69.1 °F 93% 29.96 in 9.0 mi Calm Calm - N/A   Clear
10:53 PM 70.0 °F - 68.0 °F 93% 29.96 in 8.0 mi Calm Calm - N/A   Clear
11:53 PM 69.1 °F - 66.9 °F 93% 29.96 in 6.0 mi Calm Calm - N/A   Clear